Temp
-5 -5 -4 -2 -1 -1 -1 -2 -2 -2 -2 -1 -1 -0 1 4 4 -0 -1 -1 2 4 6 7 8 8 8 8 5 4 6 4 4 4 5 6 7 8 7 7 6 5 5 5 7 7 7 9 8 8 6 6 4 3
-5 -4 -3 -2 -1 -2 -2 -2 -2 -2 -1 -1 -1 -0 1 1 1 1 1 1 3 4 2 4 5 8 8 7 7 5 6 4 4 5 6 7 7 7 7 6 8 5 7 7 8 8 8 8 7 6 7 5 5 4
-5 -3 -2 -1 -2 -2 -2 -2 -2 -2 -1 -1 -1 -1 -0 1 1 2 2 2 2 0 0 2 1 4 5 6 5 5 4 5 6 6 6 6 4 7 4 6 7 9 10 8 7 8 8 7 6 6 6 5 3 3
-4 -3 -1 -2 -2 -2 -2 -2 -2 -1 -1 -1 -1 -1 -0 0 1 4 2 2 5 2 1 -0 1 1 3 4 4 4 4 4 5 6 6 6 6 8 7 5 7 7 8 7 8 8 7 6 5 5 4 3 2 2
-3 -2 -2 -2 -2 -2 -2 -2 -2 -1 -1 -1 -1 -0 -0 -0 -0 0 0 1 2 3 1 0 1 1 2 2 2 3 3 4 5 6 6 6 8 7 8 8 5 7 4 6 6 7 7 6 5 4 3 2 1 1
-3 -1 -2 -2 -2 -2 -2 -2 -1 -2 -1 -1 -1 -1 -0 -0 -0 1 -0 1 3 2 3 1 0 2 2 2 2 3 4 6 7 7 6 5 5 7 7 6 6 4 4 5 5 5 5 4 3 2 0 -1 -2 -2
-2 -2 -2 -2 -2 -2 -2 -2 -0 1 0 0 -0 -0 0 1 2 2 0 0 3 3 3 1 0 2 3 3 4 4 5 6 6 6 6 6 6 7 7 5 5 4 3 3 3 3 0 1 -1 -1 -2 -3 -2 -2
-2 -2 -2 -2 -2 -2 -2 -1 -0 1 1 1 -1 -0 0 1 1 2 2 3 3 3 3 2 1 0 2 3 4 4 4 4 5 5 6 6 6 7 6 6 5 4 3 2 2 1 -0 -2 -3 -3 -2 -1 -1 -2
-1 -2 -2 -2 -2 -1 -1 -0 0 1 1 2 2 1 2 2 2 1 2 3 4 3 3 3 2 1 3 4 4 4 3 3 5 5 6 6 6 5 6 5 4 4 4 2 1 -1 -1 -1 -1 -1 -2 -2 -2 -3
-2 -2 -2 -2 -2 -1 -1 0 1 1 2 3 3 3 2 1 3 4 4 3 2 3 3 3 3 2 3 3 3 2 4 4 3 5 5 4 3 5 5 5 4 4 2 1 1 1 -0 -0 -1 -1 -3 -4 -5 -6
-2 -2 -2 -2 -2 -1 -1 -0 1 2 2 3 1 1 2 3 3 2 0 3 3 3 2 3 3 3 3 3 2 4 3 4 4 4 5 5 2 3 3 3 3 2 2 1 1 0 -0 -1 -2 -4 -5 -6 -7 -8
-2 -2 -2 -2 -2 -1 -1 -0 1 1 1 1 2 2 3 2 2 2 1 3 4 2 2 3 3 3 3 3 3 3 3 3 3 5 4 4 2 2 2 1 1 1 -0 -1 -2 -2 -3 -3 -4 -6 -7 -8 -8 -9
-2 -2 -1 -2 -2 -1 -0 -0 0 1 2 2 1 1 2 2 3 3 1 2 2 2 2 3 2 2 2 1 1 2 2 2 4 2 3 1 1 0 -0 -1 -1 -1 -2 -3 -4 -5 -6 -6 -6 -6 -7 -9 -11 -11
-2 -1 -1 -1 -1 -1 -0 0 1 2 2 2 2 1 1 1 1 2 3 3 2 2 3 3 3 3 2 1 2 1 1 2 3 3 3 1 0 -1 -1 -2 -2 -3 -5 -6 -7 -7 -6 -6 -7 -8 -9 -10 -11 -10
-1 -1 -1 -1 -1 -1 -0 0 1 2 0 0 1 0 -1 -2 -1 0 2 2 2 3 3 3 3 3 2 1 3 1 1 2 4 4 1 0 -1 -2 -2 -4 -4 -5 -5 -6 -6 -6 -7 -7 -8 -9 -10 -10 -10 -10
-2 -1 -2 -1 -1 -1 -0 1 2 -0 -0 -1 -1 -0 -0 0 0 1 2 2 3 3 4 4 4 2 3 3 3 3 4 4 3 0 -1 -2 -2 -3 -4 -5 -5 -6 -6 -6 -7 -7 -8 -8 -9 -9 -10 -10 -10 -11
-2 -3 -2 -2 -2 -1 -0 1 -1 -1 -1 -1 -2 -3 -1 -1 -1 -0 1 2 2 3 1 3 2 2 4 4 4 5 2 1 -1 -1 -2 -3 -4 -5 -5 -7 -7 -7 -7 -7 -7 -8 -9 -9 -9 -10 -10 -11 -11 -11
-3 -3 -3 -2 -2 -0 1 -1 -1 -1 -2 -3 -2 -3 -3 -2 -1 -0 -0 1 2 3 3 3 4 4 3 3 3 1 -2 -2 -2 -2 -3 -4 -5 -6 -7 -7 -7 -7 -7 -8 -8 -9 -9 -10 -11 -11 -12 -13 -12 -12
-4 -2 -2 -2 -2 -1 -1 -1 -1 -2 -4 -4 -4 -3 -3 -3 -2 -1 -1 0 1 2 3 4 2 4 2 2 0 -2 -3 -3 -4 -4 -5 -6 -6 -8 -8 -7 -7 -8 -8 -8 -9 -10 -9 -10 -10 -11 -11 -12 -11 -12
-3 -3 -3 -2 -1 -1 -1 -2 -1 -2 -2 -4 -3 -3 -3 -3 -3 -2 -2 -0 1 2 1 2 1 -1 -0 -2 -2 -2 -3 -4 -5 -6 -6 -7 -8 -7 -7 -7 -9 -9 -9 -10 -10 -10 -10 -10 -10 -10 -11 -11 -11 -11
-3 -3 -2 -2 -2 -2 -2 -2 -3 -3 -3 -3 -3 -3 -3 -2 -3 -2 -1 -0 1 1 2 0 -2 -3 -2 -3 -3 -3 -4 -5 -5 -6 -7 -8 -8 -8 -8 -9 -9 -10 -10 -10 -9 -10 -10 -10 -10 -10 -11 -11 -11 -12
-4 -3 -3 -3 -3 -3 -3 -2 -2 -3 -3 -3 -3 -2 -2 -2 -2 -2 -2 -0 1 -0 -1 -1 -2 -3 -2 -3 -4 -4 -4 -4 -4 -4 -6 -7 -8 -8 -8 -9 -9 -9 -9 -9 -9 -10 -10 -10 -10 -11 -12 -12 -12 -12
-3 -3 -3 -3 -3 -3 -3 -3 -2 -2 -1 -2 -1 -1 -2 -2 -2 -2 -1 -0 -2 -3 -3 -3 -2 -3 -3 -2 -3 -4 -5 -4 -5 -5 -7 -7 -7 -7 -8 -9 -8 -8 -9 -9 -9 -10 -10 -10 -11 -12 -12 -12 -13 -13
-3 -3 -4 -3 -2 -3 -3 -2 -1 -1 -1 -0 0 -1 -2 -2 -3 -1 -0 -0 -4 -4 -5 -4 -5 -5 -5 -4 -6 -5 -5 -5 -5 -6 -7 -7 -7 -7 -8 -8 -8 -8 -8 -9 -9 -10 -10 -11 -12 -12 -12 -13 -13 -13
-3 -4 -3 -3 -2 -2 -1 -1 -1 -0 -1 -0 -1 -2 -3 -2 -2 -1 -1 -2 -3 -4 -5 -6 -6 -5 -4 -5 -5 -6 -5 -5 -6 -6 -7 -7 -7 -8 -8 -8 -8 -8 -9 -9 -9 -10 -11 -11 -12 -12 -13 -13 -13 -13
-2 -4 -2 -2 -2 -0 -0 -1 -1 -1 -1 -1 -1 -2 -2 -1 -1 -1 -1 -4 -6 -6 -7 -7 -7 -6 -6 -5 -5 -6 -6 -6 -6 -6 -7 -7 -7 -8 -8 -8 -9 -9 -9 -9 -10 -10 -11 -12 -12 -12 -12 -13 -13 -13
-1 -2 -3 -3 -3 -2 -2 -1 -0 -0 -1 -1 -2 -2 -2 -1 -1 -3 -6 -8 -8 -8 -8 -8 -8 -7 -6 -6 -6 -6 -6 -6 -6 -6 -6 -7 -7 -8 -8 -8 -8 -9 -10 -10 -10 -11 -11 -12 -12 -12 -13 -13 -13 -13
-3 -4 -2 -3 -3 -3 -2 -1 -1 -1 -1 -1 -1 -2 -1 -2 -4 -8 -9 -10 -9 -9 -9 -9 -8 -8 -7 -7 -7 -7 -7 -7 -7 -7 -7 -8 -8 -8 -8 -8 -9 -9 -9 -10 -11 -11 -11 -12 -12 -13 -13 -13 -13 -13
-4 -5 -5 -3 -3 -3 -4 -3 -3 -5 -7 -4 -2 -3 -6 -10 -11 -11 -10 -10 -9 -8 -9 -9 -9 -9 -9 -8 -8 -8 -8 -8 -8 -8 -8 -9 -9 -9 -9 -9 -9 -10 -10 -11 -11 -12 -12 -12 -12 -13 -13 -13 -14 -14
-5 -6 -4 -4 -3 -4 -7 -8 -8 -8 -7 -7 -7 -8 -10 -12 -13 -11 -11 -10 -10 -10 -10 -10 -10 -10 -10 -10 -10 -9 -9 -9 -9 -9 -9 -9 -9 -9 -9 -10 -10 -11 -11 -11 -12 -12 -12 -12 -12 -13 -14 -14 -14 -14
-7 -5 -4 -4 -5 -8 -9 -9 -9 -9 -8 -8 -7 -7 -10 -12 -13 -12 -11 -12 -12 -11 -11 -11 -10 -10 -10 -10 -10 -10 -10 -10 -9 -9 -9 -8 -8 -9 -9 -10 -11 -11 -11 -11 -11 -11 -12 -12 -13 -13 -14 -14 -14 -15
-6 -6 -5 -4 -7 -9 -9 -8 -7 -7 -7 -7 -8 -9 -10 -9 -11 -14 -14 -14 -15 -15 -14 -13 -12 -12 -11 -11 -11 -10 -10 -10 -10 -10 -10 -9 -9 -10 -10 -11 -11 -12 -13 -12 -12 -12 -12 -13 -13 -14 -15 -16 -16 -16
-7 -6 -6 -6 -7 -7 -8 -7 -6 -7 -7 -8 -9 -9 -11 -11 -12 -15 -16 -15 -16 -16 -15 -14 -13 -13 -12 -12 -12 -12 -11 -11 -10 -10 -10 -10 -11 -11 -11 -11 -12 -13 -13 -13 -13 -13 -13 -15 -16 -16 -16 -16 -16 -16
Height
1312 1307 1302 1294 1293 1293 1293 1292 1289 1285 1281 1273 1267 1257 1240 1212 1210 1245 1280 1309 1327 1339 1344 1349 1351 1358 1366 1371 1381 1391 1400 1412 1417 1421 1421 1420 1417 1419 1426 1431 1437 1445 1454 1457 1455 1456 1449 1448 1454 1455 1464 1466 1471 1476
1306 1301 1295 1293 1293 1294 1293 1290 1288 1282 1276 1269 1262 1256 1249 1243 1245 1260 1285 1310 1335 1344 1347 1346 1348 1351 1358 1367 1371 1384 1385 1396 1405 1410 1413 1411 1411 1416 1421 1430 1432 1444 1440 1443 1445 1443 1444 1450 1453 1460 1463 1467 1472 1476
1302 1297 1292 1293 1294 1294 1292 1292 1288 1282 1276 1271 1265 1261 1262 1264 1268 1274 1288 1305 1322 1335 1342 1347 1352 1354 1357 1363 1369 1378 1392 1395 1400 1402 1405 1408 1417 1411 1427 1426 1428 1428 1432 1436 1442 1448 1448 1454 1458 1463 1466 1470 1475 1477
1297 1294 1293 1294 1296 1296 1295 1293 1290 1285 1280 1277 1272 1269 1269 1273 1277 1285 1295 1306 1313 1326 1346 1354 1354 1356 1363 1369 1375 1383 1391 1398 1402 1403 1408 1412 1412 1412 1418 1426 1424 1428 1432 1438 1439 1445 1452 1456 1461 1465 1469 1473 1476 1479
1295 1292 1295 1296 1298 1298 1298 1297 1295 1291 1288 1287 1284 1282 1280 1281 1284 1292 1303 1312 1318 1323 1339 1351 1356 1363 1368 1376 1384 1389 1394 1398 1401 1406 1407 1408 1411 1416 1419 1421 1432 1432 1439 1439 1440 1445 1449 1456 1462 1466 1470 1475 1478 1480
1295 1296 1296 1298 1300 1301 1302 1302 1302 1298 1295 1295 1295 1294 1293 1296 1298 1298 1309 1320 1325 1326 1333 1350 1365 1372 1377 1382 1385 1391 1395 1398 1400 1401 1407 1414 1415 1416 1418 1423 1433 1437 1439 1441 1446 1450 1454 1460 1465 1468 1471 1476 1479 1480
1295 1297 1300 1301 1304 1305 1307 1306 1306 1306 1305 1305 1304 1304 1304 1305 1306 1306 1315 1324 1329 1329 1338 1357 1371 1377 1380 1385 1389 1393 1396 1400 1403 1407 1411 1415 1417 1416 1419 1426 1434 1440 1444 1446 1450 1453 1459 1464 1468 1470 1474 1477 1481 1483
1297 1300 1303 1305 1307 1309 1310 1311 1312 1311 1311 1311 1311 1312 1314 1314 1315 1318 1325 1329 1331 1336 1343 1359 1373 1380 1385 1387 1391 1396 1399 1404 1409 1412 1413 1416 1420 1420 1424 1430 1436 1442 1446 1450 1454 1456 1460 1465 1470 1473 1477 1480 1482 1483
1300 1304 1306 1309 1311 1313 1315 1316 1317 1317 1317 1318 1319 1320 1320 1322 1325 1331 1333 1335 1337 1343 1351 1361 1366 1377 1385 1389 1393 1400 1405 1411 1414 1414 1416 1420 1421 1422 1426 1433 1439 1443 1447 1451 1456 1460 1464 1469 1472 1475 1478 1481 1482 1483
1304 1307 1310 1311 1315 1317 1319 1320 1320 1321 1321 1322 1323 1325 1328 1330 1331 1334 1337 1339 1346 1352 1359 1367 1373 1379 1386 1390 1397 1404 1407 1412 1415 1417 1418 1422 1430 1430 1433 1436 1441 1444 1449 1454 1458 1462 1466 1470 1473 1476 1478 1480 1482 1483
1307 1311 1313 1316 1318 1321 1323 1324 1325 1325 1324 1326 1328 1332 1333 1333 1335 1338 1345 1350 1357 1365 1372 1375 1377 1380 1390 1393 1400 1404 1407 1408 1409 1418 1416 1418 1434 1437 1438 1441 1444 1448 1453 1457 1460 1463 1467 1470 1473 1476 1478 1480 1481 1481
1312 1316 1318 1320 1323 1325 1328 1329 1330 1327 1329 1331 1333 1337 1338 1340 1342 1346 1355 1357 1357 1368 1375 1377 1382 1386 1392 1395 1401 1405 1406 1407 1410 1414 1415 1418 1433 1437 1441 1445 1449 1452 1456 1459 1462 1464 1467 1471 1473 1475 1477 1477 1478 1479
1316 1320 1324 1326 1328 1330 1333 1334 1334 1333 1334 1337 1339 1342 1344 1347 1345 1345 1357 1358 1365 1370 1376 1379 1386 1390 1395 1399 1405 1406 1407 1412 1413 1417 1414 1426 1433 1439 1445 1449 1452 1455 1458 1460 1463 1465 1468 1469 1471 1474 1475 1477 1478 1480
1320 1324 1328 1331 1333 1335 1336 1337 1337 1337 1339 1340 1342 1349 1351 1354 1358 1356 1353 1358 1366 1370 1376 1383 1385 1390 1397 1401 1404 1409 1416 1415 1412 1411 1414 1429 1433 1440 1445 1449 1452 1456 1459 1460 1463 1465 1467 1470 1472 1474 1476 1478 1479 1481
1324 1328 1332 1335 1338 1340 1341 1342 1342 1341 1342 1347 1351 1358 1365 1367 1366 1364 1364 1367 1375 1378 1380 1383 1387 1392 1398 1404 1404 1412 1415 1410 1404 1405 1419 1428 1435 1440 1445 1447 1451 1454 1457 1460 1463 1466 1468 1471 1473 1475 1477 1479 1480 1482
1329 1332 1337 1340 1343 1344 1345 1346 1344 1345 1351 1356 1363 1369 1371 1369 1370 1371 1373 1375 1380 1382 1383 1384 1389 1396 1399 1400 1401 1402 1400 1401 1411 1419 1423 1430 1435 1441 1443 1447 1451 1455 1458 1461 1464 1467 1469 1472 1474 1476 1478 1480 1481 1483
1336 1337 1341 1344 1347 1349 1350 1351 1350 1354 1360 1368 1375 1374 1374 1377 1379 1381 1382 1384 1385 1385 1387 1388 1392 1397 1398 1397 1398 1399 1410 1417 1420 1424 1428 1432 1435 1439 1444 1447 1451 1455 1458 1461 1465 1468 1471 1473 1475 1477 1479 1481 1482 1484
1341 1344 1345 1348 1352 1355 1356 1357 1361 1367 1374 1380 1382 1384 1383 1384 1386 1387 1388 1388 1388 1387 1388 1392 1394 1397 1400 1403 1404 1415 1420 1422 1424 1426 1429 1433 1437 1441 1444 1448 1452 1456 1459 1462 1466 1469 1471 1474 1477 1479 1480 1482 1483 1484
1348 1350 1353 1354 1356 1359 1363 1368 1371 1378 1385 1387 1388 1388 1389 1391 1393 1394 1394 1393 1393 1394 1395 1397 1400 1399 1406 1411 1415 1418 1421 1424 1426 1429 1433 1437 1439 1442 1446 1449 1453 1456 1459 1463 1466 1469 1472 1475 1479 1479 1481 1482 1485 1486
1355 1356 1360 1361 1361 1364 1370 1376 1377 1382 1388 1393 1392 1393 1395 1397 1398 1399 1400 1399 1400 1400 1403 1404 1409 1414 1415 1417 1418 1420 1422 1424 1426 1430 1435 1438 1440 1443 1447 1450 1454 1456 1460 1464 1468 1470 1473 1476 1478 1480 1481 1482 1484 1485
1361 1363 1364 1365 1367 1370 1376 1380 1384 1388 1392 1395 1396 1398 1400 1402 1402 1403 1404 1404 1405 1407 1408 1412 1415 1416 1417 1418 1419 1421 1422 1425 1427 1429 1432 1435 1440 1444 1447 1451 1453 1457 1460 1463 1467 1470 1472 1474 1476 1478 1479 1481 1483 1484
1366 1368 1370 1370 1373 1377 1381 1383 1386 1390 1394 1397 1399 1400 1403 1404 1405 1407 1408 1408 1409 1411 1413 1415 1417 1417 1418 1419 1421 1422 1424 1427 1430 1431 1433 1436 1440 1443 1447 1449 1453 1456 1459 1462 1465 1467 1470 1472 1474 1475 1477 1479 1481 1482
1371 1373 1374 1376 1379 1384 1390 1389 1390 1392 1395 1398 1399 1402 1405 1406 1407 1409 1410 1410 1411 1414 1415 1416 1417 1418 1419 1419 1420 1422 1425 1428 1430 1431 1434 1438 1441 1444 1446 1449 1452 1455 1458 1460 1463 1465 1468 1469 1471 1473 1475 1476 1479 1480
1376 1376 1377 1379 1381 1387 1390 1390 1390 1394 1396 1395 1397 1401 1405 1407 1409 1409 1408 1409 1413 1414 1415 1415 1416 1417 1418 1419 1420 1421 1425 1428 1429 1432 1435 1437 1440 1443 1445 1448 1451 1454 1457 1459 1461 1463 1465 1467 1469 1472 1473 1475 1477 1478
1380 1382 1382 1383 1384 1386 1387 1390 1391 1391 1394 1395 1398 1402 1406 1407 1407 1407 1407 1411 1413 1415 1415 1417 1417 1418 1419 1419 1420 1421 1424 1427 1429 1431 1434 1436 1439 1441 1444 1447 1450 1452 1455 1456 1459 1461 1462 1465 1467 1470 1471 1473 1475 1477
1377 1382 1382 1382 1384 1383 1385 1386 1388 1390 1393 1395 1399 1402 1404 1404 1405 1404 1408 1414 1415 1416 1416 1416 1417 1417 1418 1419 1419 1420 1423 1426 1429 1430 1433 1435 1436 1439 1441 1444 1447 1450 1451 1454 1456 1458 1460 1463 1465 1467 1469 1471 1473 1474
1379 1383 1384 1385 1386 1386 1388 1389 1388 1390 1392 1395 1399 1402 1402 1401 1400 1409 1414 1415 1416 1416 1416 1415 1416 1417 1418 1418 1418 1420 1422 1425 1427 1428 1431 1434 1436 1438 1440 1442 1444 1447 1448 1451 1454 1456 1458 1460 1462 1465 1467 1469 1470 1471
1385 1386 1384 1387 1387 1388 1387 1388 1389 1390 1392 1394 1397 1397 1397 1398 1407 1414 1415 1416 1416 1417 1416 1415 1416 1417 1417 1417 1419 1420 1421 1424 1426 1426 1428 1431 1434 1436 1438 1441 1442 1444 1446 1448 1451 1454 1456 1458 1460 1462 1464 1466 1466 1467
1387 1387 1388 1387 1388 1389 1391 1390 1390 1395 1396 1396 1394 1397 1405 1411 1413 1414 1415 1415 1416 1416 1417 1416 1416 1416 1417 1418 1418 1419 1421 1423 1424 1425 1427 1429 1431 1434 1435 1437 1440 1442 1444 1446 1449 1452 1454 1455 1457 1460 1461 1463 1463 1464
1390 1389 1388 1389 1388 1390 1395 1395 1395 1396 1397 1398 1401 1405 1408 1412 1413 1414 1414 1415 1415 1415 1416 1416 1416 1417 1418 1418 1419 1419 1420 1422 1425 1426 1427 1428 1429 1431 1432 1435 1437 1438 1440 1443 1445 1447 1450 1452 1453 1456 1457 1458 1459 1460
1392 1391 1391 1391 1393 1396 1397 1397 1397 1399 1401 1402 1403 1404 1408 1412 1414 1414 1414 1414 1415 1415 1415 1416 1417 1417 1418 1419 1420 1420 1421 1421 1422 1424 1425 1426 1427 1429 1430 1432 1434 1436 1438 1440 1442 1444 1446 1448 1450 1452 1453 1455 1456 1457
1392 1392 1392 1392 1397 1399 1399 1400 1400 1401 1403 1404 1406 1407 1410 1411 1415 1417 1416 1415 1415 1415 1415 1415 1415 1415 1416 1418 1419 1419 1419 1420 1421 1423 1424 1425 1427 1428 1429 1431 1432 1434 1436 1438 1440 1442 1444 1446 1447 1449 1450 1452 1453 1455
1394 1394 1394 1395 1396 1397 1400 1400 1400 1402 1403 1405 1408 1409 1410 1412 1417 1420 1418 1416 1417 1416 1414 1414 1414 1415 1416 1417 1418 1418 1419 1419 1420 1421 1423 1424 1425 1427 1428 1429 1431 1433 1435 1437 1438 1440 1442 1444 1446 1448 1449 1450 1452 1453
Wind_Speed
27 31 31 18 8 7 6 8 6 10 10 17 20 4 6 8 38 93 72 70 65 41 20 41 36 34 37 33 10 19 16 6 6 6 6 5 5 10 7 12 14 9 9 9 9 9 12 19 9 2 9 13 13 7
28 28 23 2 4 2 1 1 8 12 9 6 6 12 15 34 44 54 48 62 56 27 12 20 14 33 39 38 25 36 6 18 10 6 5 4 6 6 9 8 14 8 7 6 8 4 14 15 18 13 9 13 10 7
26 24 4 10 6 2 1 14 15 9 7 4 9 12 29 31 35 45 47 49 47 22 18 18 12 20 20 20 39 18 12 11 10 8 2 2 4 1 4 4 9 7 18 5 6 8 13 16 15 12 10 12 10 7
22 13 5 11 7 6 17 17 13 12 11 14 15 17 20 24 47 45 45 40 34 18 4 5 16 21 27 26 23 21 27 16 20 11 4 3 3 4 3 5 7 5 6 8 7 14 16 13 12 12 11 11 10 8
16 5 14 12 9 8 22 17 20 18 19 19 27 36 35 37 40 43 34 25 31 16 5 12 24 22 31 27 20 29 20 20 18 7 3 3 5 5 5 5 2 5 3 5 3 16 4 15 14 12 11 8 5 4
8 11 15 13 11 19 19 15 18 16 27 28 32 37 47 46 45 46 28 28 39 40 19 5 13 26 28 24 17 21 23 17 7 5 5 4 3 2 2 3 9 15 15 13 11 15 21 19 14 14 15 9 5 5
6 14 15 14 13 15 12 12 14 18 16 18 24 22 23 18 15 11 12 23 31 33 16 5 4 13 28 24 21 20 22 17 16 9 4 6 5 3 1 4 16 14 17 20 20 23 16 13 14 11 11 9 9 6
13 15 14 15 16 16 14 11 16 26 29 27 19 25 25 33 36 34 28 25 22 18 11 4 5 6 14 17 12 15 17 11 7 3 7 7 4 1 4 17 19 18 19 18 13 10 16 16 13 11 8 7 4 3
21 16 17 20 21 18 18 17 20 23 32 31 32 28 26 21 19 20 28 25 21 13 4 4 7 6 12 17 19 8 7 3 4 2 5 7 2 3 17 20 20 19 16 17 15 16 16 13 11 10 7 4 5 5
21 18 17 17 20 14 18 21 19 19 16 15 17 16 7 7 20 22 13 7 9 10 9 4 9 7 15 9 4 4 3 3 3 3 6 4 4 12 16 17 17 16 18 16 16 15 14 13 11 8 8 7 7 7
23 20 17 21 21 20 18 14 14 14 10 11 6 6 12 13 6 7 5 5 3 4 5 11 18 10 10 6 4 3 3 2 3 3 4 3 4 6 15 17 15 17 15 11 11 12 12 11 11 10 9 9 9 7
25 19 16 20 20 19 18 14 7 7 14 11 19 19 8 6 6 5 3 3 4 3 5 9 15 14 10 5 3 3 2 1 4 6 2 5 5 17 16 16 15 16 16 15 14 15 15 13 12 13 11 8 6 5
21 21 22 20 20 19 16 9 15 22 20 9 4 4 3 4 3 3 4 3 4 5 9 16 8 5 5 6 4 2 2 3 8 2 3 3 17 20 18 17 16 16 17 17 17 16 15 14 12 9 7 8 8 7
18 22 23 20 17 17 13 14 13 12 8 5 4 5 5 4 5 4 9 8 10 18 21 15 6 4 4 3 1 4 2 2 4 4 3 7 22 22 20 19 19 18 18 18 15 13 13 11 11 10 9 9 8 8
16 20 23 17 16 15 10 10 8 7 6 6 6 5 6 5 7 8 19 25 22 22 16 11 8 8 3 3 2 4 4 3 3 2 5 21 24 22 22 22 23 22 18 15 13 13 13 12 12 12 11 9 9 9
20 25 17 14 14 10 12 7 10 7 5 6 8 8 11 7 9 17 17 19 17 11 11 7 4 3 2 3 2 2 5 2 3 4 21 25 23 23 24 21 21 19 16 15 14 14 13 12 12 12 12 10 9 8
18 15 13 14 13 12 7 6 8 8 7 6 5 13 17 10 10 10 13 13 9 8 2 3 3 4 0 2 3 3 4 4 13 17 19 21 25 25 23 20 19 19 16 16 16 15 14 13 12 12 11 10 8 7
22 14 13 12 17 14 10 10 6 8 9 10 6 9 15 11 10 10 10 8 8 8 8 3 3 2 2 2 3 4 7 15 15 18 21 23 23 23 22 21 20 18 17 17 16 15 13 14 11 8 6 7 5 6
19 19 17 20 18 8 5 6 6 6 8 6 9 11 12 10 11 8 9 13 11 9 4 3 2 3 4 7 7 13 13 14 17 18 20 21 22 22 20 20 19 18 17 17 16 13 13 13 7 7 6 8 5 4
18 20 16 11 10 5 5 5 5 6 4 4 6 8 6 6 9 9 5 7 7 5 4 3 4 4 5 5 7 10 13 18 24 24 22 20 20 21 20 20 18 18 17 16 14 12 12 11 10 9 7 7 8 6
18 16 12 10 8 9 5 4 6 5 5 5 5 5 5 6 5 4 4 4 6 4 3 6 7 6 6 8 9 12 15 19 20 17 25 26 22 19 20 17 17 17 17 17 16 14 13 12 11 11 13 10 9 8
12 11 6 8 7 6 6 7 7 5 4 7 5 4 5 4 3 2 3 2 2 4 3 5 4 3 3 6 9 10 16 13 12 13 17 22 24 22 21 20 20 19 17 17 16 15 14 13 13 12 12 13 12 10
12 6 4 4 5 4 3 2 3 3 3 5 7 5 2 2 3 3 2 0 3 2 4 5 5 7 5 3 7 9 17 14 15 17 19 19 17 17 20 19 20 19 18 17 16 15 15 15 15 13 12 11 10 9
10 2 3 3 4 4 4 1 4 4 4 3 3 4 3 3 5 2 1 3 3 1 1 3 4 3 3 5 7 12 18 12 14 16 18 19 19 19 19 19 19 18 16 17 17 16 18 17 14 14 13 10 9 8
2 2 2 4 3 4 4 4 2 3 3 2 3 3 3 4 2 3 1 4 6 3 1 1 3 4 3 5 8 9 19 14 15 16 18 18 18 18 17 17 17 17 18 20 20 19 19 16 15 14 12 11 11 10
4 5 4 2 1 2 3 3 4 4 5 3 2 5 3 3 4 2 2 6 7 4 2 1 1 2 5 5 11 12 17 16 13 15 18 18 19 19 21 21 20 19 20 21 20 20 17 16 15 15 13 12 12 11
3 3 3 3 2 4 3 3 5 3 3 4 4 5 4 5 4 4 6 6 4 3 3 1 3 4 3 7 7 10 9 17 15 14 12 17 16 16 18 19 19 19 20 20 20 19 17 17 15 16 14 13 14 14
3 3 1 3 2 1 2 3 4 3 3 4 8 4 3 3 3 3 4 2 3 5 5 3 6 6 5 6 9 11 12 16 15 18 19 19 18 17 18 19 18 19 16 17 20 18 17 17 16 16 15 13 13 13
3 3 2 2 2 3 4 4 3 3 1 3 1 3 4 5 4 4 3 5 6 5 3 5 5 3 5 6 6 10 12 16 19 20 19 17 19 18 20 20 19 18 16 17 19 18 17 15 14 14 14 15 18 17
3 3 2 2 3 3 3 4 4 4 6 7 5 6 7 7 4 4 4 3 4 5 5 2 1 4 2 1 2 4 5 10 11 12 14 14 15 17 19 18 18 19 17 19 22 23 21 21 18 17 17 17 17 14
2 1 0 3 4 4 3 5 6 7 5 5 8 9 8 7 4 7 6 6 4 1 6 7 6 2 3 1 2 3 6 10 15 13 11 12 14 11 9 13 17 17 16 17 17 18 18 17 16 16 16 14 12 10
2 3 3 2 4 2 4 1 2 2 2 3 3 3 5 5 4 4 10 7 6 5 3 3 3 2 6 6 3 4 7 6 5 11 11 9 10 10 9 11 14 15 15 15 14 13 13 13 13 12 12 11 11 10
1 1 1 4 5 4 1 2 2 3 2 3 3 4 5 5 5 2 6 8 7 7 5 2 1 0 2 4 4 3 4 5 5 9 9 8 6 6 9 12 13 14 15 15 13 12 13 13 12 12 11 12 11 11
Wind_Direction
299 298 305 340 230 224 247 276 282 275 288 295 270 329 37 129 195 191 192 195 197 208 222 225 198 199 207 189 168 161 139 159 165 175 188 177 184 179 156 175 178 164 180 206 218 232 234 136 146 210 112 115 118 131
303 303 321 232 196 207 260 279 50 12 316 253 257 109 132 114 124 153 161 184 189 191 193 207 198 209 198 188 165 171 147 149 158 155 195 198 174 165 152 177 169 195 200 182 207 219 113 136 105 115 125 132 121 119
303 316 6 175 157 120 128 84 39 19 71 63 123 143 121 139 132 139 141 151 156 126 88 108 126 153 163 162 162 143 146 150 159 138 130 32 85 115 154 184 165 189 181 169 133 141 129 113 114 113 113 117 117 110
307 340 153 157 140 126 94 60 61 64 87 106 106 111 135 152 147 155 137 151 153 114 100 101 114 123 128 137 150 157 142 146 157 127 111 183 133 62 168 151 157 122 158 153 116 138 130 127 126 119 102 107 96 91
331 77 159 143 134 133 100 73 62 92 114 113 109 111 115 124 127 124 119 124 146 130 124 114 102 127 139 139 131 151 153 142 130 147 179 83 90 95 200 109 114 133 188 170 149 142 138 141 126 130 124 102 91 95
5 141 151 142 132 121 93 80 73 65 123 123 114 103 102 102 106 105 88 100 115 116 107 92 86 140 153 165 141 153 155 168 148 117 68 64 48 8 116 93 106 96 89 97 94 98 111 114 107 112 116 126 103 109
94 152 145 147 146 125 103 87 69 94 107 112 111 105 120 86 114 90 107 119 120 105 102 91 72 116 124 124 123 122 115 121 107 95 107 131 113 121 219 121 134 122 113 111 115 121 101 118 109 119 126 125 111 99
140 143 151 143 131 125 121 102 99 107 110 115 119 97 101 102 95 89 94 110 109 94 72 84 111 99 121 101 97 94 89 80 65 94 125 116 123 135 82 120 134 132 125 123 104 105 138 130 126 124 122 136 131 91
149 139 150 138 128 122 123 119 119 117 114 114 114 109 102 86 87 94 88 85 82 67 93 94 119 105 99 106 106 89 83 67 89 107 122 150 146 35 130 137 139 140 142 122 115 117 126 129 133 133 132 109 108 91
146 140 144 156 160 143 129 125 114 114 119 122 114 93 66 91 92 103 74 50 48 36 52 81 104 106 130 110 71 67 84 137 142 106 136 88 71 112 132 135 135 124 124 131 132 132 134 135 134 126 109 99 103 103
148 137 143 137 141 148 133 122 122 110 105 123 53 76 94 76 58 52 55 52 88 82 70 111 119 119 114 104 119 123 145 173 133 164 179 131 138 125 118 116 119 125 132 131 132 136 143 143 135 127 115 107 108 125
145 144 131 145 152 155 146 146 128 67 101 111 123 117 110 37 49 70 61 40 80 98 122 131 116 100 87 106 90 51 88 255 98 157 178 133 130 146 127 123 123 124 127 121 118 112 115 121 133 133 141 148 133 106
134 143 145 135 128 127 131 114 107 96 113 107 76 74 16 5 64 101 128 108 116 126 129 126 114 115 93 80 77 108 88 68 117 174 144 95 157 143 147 146 137 132 128 122 117 118 133 141 155 157 141 120 115 113
135 156 145 146 148 146 138 128 88 106 55 42 43 43 11 50 47 22 77 98 113 124 124 126 107 94 109 73 112 78 74 193 192 164 114 149 146 150 153 149 141 139 136 137 141 144 136 138 136 131 125 124 128 120
111 145 154 151 145 146 128 134 25 42 56 46 31 51 48 67 55 58 101 108 117 121 128 118 91 81 81 110 103 128 168 160 196 95 120 145 147 152 150 154 158 160 159 156 150 141 137 136 135 133 132 134 119 112
128 142 146 162 163 167 138 81 32 54 61 58 45 91 100 97 79 82 93 104 118 100 87 73 85 81 75 123 107 124 153 114 82 105 125 144 151 151 163 168 165 163 164 156 149 147 143 139 138 136 131 125 119 116
127 102 149 153 154 159 143 46 25 46 52 57 32 23 70 70 75 72 85 83 81 68 77 110 70 55 100 80 98 34 38 91 117 126 142 151 153 160 166 167 159 163 160 156 154 150 148 147 140 137 137 132 127 112
101 99 118 142 149 117 87 38 52 53 59 36 75 41 76 96 77 79 78 61 41 37 43 61 115 84 94 108 95 108 104 103 120 127 144 153 163 163 166 162 161 162 160 160 158 156 155 148 129 132 155 146 134 111
117 127 115 109 105 80 55 41 39 73 62 75 72 82 85 78 92 116 107 62 55 52 59 54 56 50 57 59 95 113 137 140 131 140 152 162 163 163 162 161 161 162 164 163 159 158 153 135 162 175 176 143 146 123
111 120 110 98 82 73 70 47 61 72 68 90 55 45 58 80 110 111 81 46 33 36 52 49 51 53 75 95 102 152 156 158 156 141 150 157 167 165 166 163 163 167 158 153 146 159 162 160 157 164 178 154 177 191
133 125 93 68 50 63 85 73 70 90 94 85 101 72 76 104 94 102 74 37 45 23 66 80 107 119 104 106 119 147 164 169 164 167 164 163 167 166 159 164 175 159 165 161 169 174 169 173 176 184 193 183 191 194
127 124 69 53 64 59 54 33 93 88 75 129 119 88 116 115 109 82 112 77 110 75 69 106 123 111 106 118 135 150 157 158 167 181 175 170 164 169 169 181 163 168 173 177 178 183 167 183 190 202 174 190 192 204
125 97 59 60 83 71 80 75 82 132 121 145 145 117 119 128 110 147 116 90 90 129 138 195 196 174 192 162 165 159 158 156 164 173 176 168 178 176 182 181 173 181 178 182 183 185 178 191 198 190 194 200 182 209
135 47 58 58 64 96 111 56 112 89 115 183 121 118 124 120 149 162 190 123 117 104 151 231 171 167 175 172 169 169 164 159 166 173 168 174 178 181 191 185 184 186 187 187 188 188 196 201 203 188 198 193 191 203
193 27 94 83 118 131 125 130 157 124 126 162 111 127 142 151 142 169 193 103 105 125 211 137 191 201 216 198 185 196 170 179 187 176 178 184 184 184 187 187 192 187 188 192 191 197 202 205 197 192 199 188 201 203
66 23 23 63 126 119 146 133 153 141 131 131 100 102 155 162 170 181 90 75 93 80 37 360 241 231 215 193 204 211 186 174 196 194 188 188 199 192 186 185 187 192 203 206 199 202 209 198 197 191 202 201 210 211
68 63 66 59 62 105 95 67 97 114 143 151 163 166 166 182 172 87 110 83 71 5 9 262 184 200 205 211 196 202 199 182 189 207 201 195 206 204 201 198 201 204 207 204 202 205 206 205 195 198 208 210 224 225
59 39 10 121 119 359 119 145 163 157 132 138 154 184 186 17 73 65 95 113 102 64 14 136 171 181 161 194 202 197 201 191 191 179 182 187 192 195 199 200 203 214 222 207 200 201 206 214 206 208 208 211 228 243
47 22 355 97 102 72 42 8 72 72 44 349 241 77 83 72 87 115 110 93 81 87 95 25 31 164 203 220 217 216 209 193 188 190 197 192 193 198 209 209 208 210 213 199 196 199 202 214 210 208 213 213 228 239
56 3 319 52 5 68 50 31 81 100 92 85 92 101 91 98 78 118 114 96 61 41 39 30 80 97 4 110 214 211 197 189 196 216 212 214 222 217 218 211 206 208 209 203 204 203 205 208 211 210 212 216 227 230
350 334 64 45 68 57 84 94 91 87 84 75 64 93 117 137 100 40 54 76 68 123 135 82 47 106 101 100 281 244 214 217 211 212 220 225 224 226 223 210 208 210 206 207 206 204 208 212 214 214 218 218 217 217
28 24 331 124 110 122 87 89 109 99 117 125 86 100 131 146 92 20 11 49 37 37 64 140 161 155 189 183 190 217 214 245 235 210 210 207 196 209 221 218 209 199 198 205 209 212 208 209 211 211 207 200 213 202
136 99 92 136 148 154 105 181 127 113 98 84 74 38 53 52 80 74 342 22 39 360 351 311 217 34 190 165 187 241 224 230 214 202 208 213 219 215 213 212 205 199 203 211 212 213 198 192 200 199 200 211 213 211